Showing default

TELKOM 1, 25880

Orbit data source: Space-Track

TELKOM 1, 25880 is a payload satellite owned by Telkom (ID) in GEO that was launched on Thu, 12 Aug 1999 UTC via an ARIANE 42P launch vehicle from the French Guiana (FRGUI). Payload-class satellites include a variety of spacecraft equipped with specific instruments for various scientific and technological missions. These include communications satellites like Starlink; space stations such as the ISS; scientific satellites like the Hubble; Earth observation satellites from companies like Planet Labs, Umbra, and HawkEye 360; GPS; miniature CubeSats for education and research; and military/defense satellites.

Not visible in the next 10 days
Identifier
25880, 1999-042A
Orbit
GEO
Country
Flag of UnknownUnknown / INDO
Related business
Manufacturer
LMCSS
Mission
Non-operational Commercial Communications
Bus & Motor
A2100, LEROS 1C
Mass
2,763 kg wet, ~1,500 kg dry
Launch date (UTC)
1999-08-12 (26 years ago)
Launch vehicle
ARIANE 42P
Launch site
French Guiana (FRGUI)
Object type
Payload
Rocket body
Debris
Shape & HBR
Box + 1 Pan, 11.3 m
Radar Cross Section
38.975 m², Large (>1 m²)

Expand to show TLE details & history
Last TLE update: 18 hours ago

TLE from 18 hours ago
0 TELKOM 1
1 25880U 99042A   25261.02812000 -.00000215  00000-0  00000-0 0  9995
2 25880   7.0034  69.4291 0014517 243.1881 140.7175  1.00288233 95663
Epoch: 2025-09-18T00:40Z
TLE epoch observation values (Epoch: 2025-09-18T00:40:29.567Z)
Latitude
2.82329°
Longitude
85.95452°
Altitude
35,828.446 km
Speed
3.071 km/s
True Right ascension
06h 13m 05s
True Declination
2° 49' 14"
Sunlit
Object was in daylight at epoch
Visualization orbit readout
Latitude
Unknown
Longitude
Unknown
Altitude
Unknown
Speed
Unknown
Apparent Right ascension
Unknown
Apparent Declination
Unknown
Sunlit
N/A
Visualization observer readout
Local Sidereal Time
11:07:51
Azimuth
Unknown
Elevation
Unknown
Doppler factor
Unknown
Orbital elements
Apogee altitude
35,844.237 km
Perigee altitude
35,721.826 km
Semi-major axis
42,161.169 km
Eccentricity
0.00145
Inclination
7.0034°
RAAN
69.4291°
Arg. of periapsis
243.1881°
True anomaly
140.82268°
Mean anomaly
140.7175°
Eccentric anomaly
140.7701°
Mean motion
0.25071 °/min
Orbital period
1,435.91 mins
BSTAR
0
Loading maneuver chart data...
Computing Atmospheric mass density...
Loading historical data...
Loading historical data...
Loading historical data...
Loading historical data...
Loading historical data...
Loading historical data...
Loading historical data...
Other satellites on launch #42 in the year 1999 (1999-08-12 UTC)

Documentation

Showing up to 5 results
|